Location: Avenches
(46.8809°N, 7.0410°E)
Time: 07:15:39
(UTC+00:00)

Cosmos 1943 Rocket - Pass Details

Date: 30 March 2020
Orbit: 812 x 844 km, 71.0° (Epoch: 23 May)

Event Time Altitude Azimuth Distance (km) Brightness Sun altitude
Rises 19:53:50 0° 331° (NNW) 3,352 6.3 -19.4°
Reaches altitude 10° 19:56:16 10° 330° (NNW) 2,419 5.4 -19.8°
Maximum altitude 20:01:47 74° 246° (WSW) 856 2.2 -20.6°
Enters shadow 20:04:32 31° 168° (SSE) 1,417 3.0 -21.0°
